Regional Weather Roundup
Issued by NWS

Home | Current Version | Previous Version | Text Only | Print | Product List | Glossary On
Versions: 1 2 3 4 5 6 7 8 9 10 11 12 13 14 15 16 17 18 19 20 21 22 23 24 25 26 27 28 29 30 31 32 33 34 35 36 37 38 39 40 41 42 43 44 45 46 47 48 49 50
000
ASUS44 KFWD 282303
RWRTX
NORTH TEXAS HOURLY WEATHER ROUNDUP
NATIONAL WEATHER SERVICE FORT WORTH TX
600 PM CDT WED JUN 28 2017

NOTE: "FAIR" INDICATES FEW OR NO CLOUDS BELOW 12,000 FEET WITH NO
SIGNIFICANT WEATHER AND/OR OBSTRUCTIONS TO VISIBILITY.

TXZ118-119-290000-
DALLAS/FORT WORTH METROPLEX

CITY           SKY/WX    TMP DP  RH WIND       PRES   REMARKS
DFW AIRPORT    MOSUNNY   90  69  50 SE15G22   29.84F HX  94
DALLAS LOVE    MOSUNNY   90  67  46 SE16      29.85F HX  93
FTW MEACHAM    MOSUNNY   90  69  50 SE17      29.84F HX  94
DAL-EXECUTIVE  SUNNY     88  69  53 SE12G17   29.85F HX  92
FTW-ALLIANCE   MOSUNNY   88  69  53 SE17G25   29.84F HX  92
FTW-NAS-JRB    MOSUNNY   90  70  51 SE7       29.85F HX  95
FTW-SPINKS     MOSUNNY   88  68  51 SE17      29.88F HX  91
ARLINGTON      SUNNY     89  68  49 SE16      29.85F HX  93
GRAND PRAIRIE  SUNNY     90  66  45 SE12      29.87F HX  92
ADDISON        PTSUNNY   88  68  51 S14G21    29.87F HX  91
MESQUITE       MOSUNNY   90  66  45 SE12      29.87F HX  92
LANCASTER      SUNNY     89  66  46 SE13G18   29.87F HX  92
$$

TXZ091>094-102>105-117-120-121-131>134-290000-
NORTH CENTRAL TEXAS

CITY           SKY/WX    TMP DP  RH WIND       PRES   REMARKS
SHRMAN/DENISON MOSUNNY   88  68  51 SE16      29.85F HX  92
GAINESVILLE    SUNNY     86  67  53 S18       29.86F
BOWIE          SUNNY     88  67  50 S17G25    29.83F HX  90
BRIDGEPORT     MOSUNNY   89  68  49 SE15G22   29.86F HX  92
DECATUR        MOSUNNY   88  67  49 S17G24    29.85F HX  90
DENTON         SUNNY     88  69  53 SE17      29.85F HX  92
MCKINNEY       SUNNY     88  70  55 S17       29.85F HX  93
BONHAM         MOSUNNY   88  68  51 S15G21    29.86F HX  91
GREENVILLE     SUNNY     91  68  46 S13       29.87F HX  95
ROCKWALL       MOSUNNY   88  71  56 S12G18    29.87F HX  94
TERRELL        SUNNY     89  69  51 S13       29.87F HX  93
WAXAHACHIE     MOSUNNY   88  70  54 SE7G17    29.88F HX  92
CLEBURNE       SUNNY     88  70  55 S16       29.88F HX  92
GRANBURY       SUNNY     90  66  46 SE16      29.86F HX  92
$$

TXZ083>090-098>101-113>116-127>130-139>142-154-155-290000-
WESTERN NORTH TEXAS

CITY           SKY/WX    TMP DP  RH WIND       PRES   REMARKS
WICHITA FALLS  MOSUNNY   89  67  47 S25       29.80F HX  92
WF-KICKAPOO    SUNNY     90  67  47 S21G30    29.82F HX  93
VERNON         SUNNY     94  57  28 S23       29.79F HX  92
ABILENE        SUNNY     89  66  46 SE21G31   29.84F HX  91
ABILENE-DYESS  SUNNY     92  67  43 SE21G30   29.81F HX  95
GRAHAM         SUNNY     89  67  48 SE14G20   29.82F HX  92
BRECKENRIDGE   SUNNY     89  65  43 SE16G26   29.84F HX  91
CISCO          SUNNY     88  66  48 S18       29.88S HX  90
EASTLAND       SUNNY     87  69  55 S16       29.86F HX  90
RANGER         MOSUNNY   86  67  53 SE17      29.87F
MINERAL WELLS  SUNNY     89  68  49 SE16      29.84F HX  93
STEPHENVILLE   MOSUNNY   88  67  49 SE14G21   29.90F HX  90
COMANCHE       MOSUNNY   87  68  52 S15G22    29.87F HX  90
BROWNWOOD      SUNNY     86  66  51 SE13G21   29.87F
COLEMAN        SUNNY     91  61  35 SE18G24   29.87S HX  91
$$

TXZ143>147-156>162-174-175-290000-
CENTRAL TEXAS

CITY           SKY/WX    TMP DP  RH WIND       PRES   REMARKS
WACO           MOSUNNY   89  68  49 SE12      29.86F HX  93
WACO-MCGREGOR  MOSUNNY   91  69  48 SE14      29.86F HX  96
HILLSBORO      MOSUNNY   87  70  56 SE9       29.87F HX  92
CORSICANA      MOSUNNY   91  69  48 SE12      29.88F HX  96
MEXIA          MOSUNNY   89  69  51 SE8G18    29.86F HX  93
HEARNE         PTSUNNY   90  71  53 NE9       29.86F HX  96
CAMERON        MOSUNNY   90  69  49 SE9       29.85F HX  94
TEMPLE         MOSUNNY   91  67  44 SE10      29.87F HX  94
KILLEEN        MOSUNNY   88  67  48 SE9       29.86F HX  91
KILLEEN-SKYLRK SUNNY     89  69  51 SE15      29.87F HX  93
FORT HOOD      SUNNY     89  66  46 SE13      29.84F HX  91
HAMILTON       MOSUNNY   88  67  48 S15G22    29.89F HX  91
LAMPASAS       MOSUNNY   91  72  54 SE8       29.87F HX  98
$$

TXZ095>097-106>112-122>126-135>138-148>153-164>167-290000-
EAST TEXAS

CITY           SKY/WX    TMP DP  RH WIND       PRES   REMARKS
PARIS            N/A     88  70  55 S15       29.88F HX  93
SULPHUR SPRNGS SUNNY     89  67  48 SE9       29.89F HX  91
MOUNT PLEASANT SUNNY     86  68  55 SE6       29.90F
GILMER         MOSUNNY   87  68  52 SE8       29.89F HX  90
MINEOLA        SUNNY     88  70  55 SE6       29.87F HX  92
TYLER          MOSUNNY   88  69  53 SE12      29.88F HX  92
LONGVIEW       MOSUNNY   87  70  56 SE7       29.88F HX  92
MARSHALL       MOSUNNY   86  69  55 SE5       29.92F HX  90
ATHENS         SUNNY     86  68  54 SE7       29.87F
PALESTINE      MOSUNNY   86  71  60 E5        29.89F HX  92
JACKSONVILLE   SUNNY     87  69  54 SE7       29.92F HX  91
HENDERSON      MOSUNNY   87  69  56 E7        29.90F HX  91
CENTER         PTCLDY    90  72  55 E6        29.91F HX  97
NACOGDOCHES    PTSUNNY   86  72  62 E8G16     29.87F HX  92
LUFKIN         MOSUNNY   86  70  58 SE12      29.88F HX  90
$$

SUPPLEMENTAL OBSERVATIONS (NWS FORT WORTH AREA)

CITY           SKY/WX    TMP DP  RH WIND       PRES   REMARKS
$$

SUPPLEMENTAL OBSERVATIONS (NWS NORMAN AREA)

CITY           SKY/WX    TMP DP  RH WIND       PRES   REMARKS
GOODLETT         N/A     97  56  25 SE23G30   29.75F HX  95
ODELL            N/A     91  66  42 SE21      29.80F HX  93
CROWELL          N/A     94  67  41 SE24      29.79S HX  97
KNOX CITY        N/A     96  57  27 SE25G31   29.79F HX  94
SEYMOUR          N/A     90  66  44 SE21G29   29.81F HX  93
$$

SUPPLEMENTAL OBSERVATIONS (NWS SAN ANGELO AREA)

CITY           SKY/WX    TMP DP  RH WIND       PRES   REMARKS
WEINERT          N/A     93  67  41 S22       29.81S HX  96
HASKELL          N/A     91  62  38 SE15G22   29.81F HX  91
THROCKMORTON     N/A     87  69  55 SE14G20   29.84F HX  91
STAMFORD         N/A     93  67  42 SE25      29.82F HX  96
CLYDE            N/A     88  66  48 SE20      29.88F HX  90
$$

SUPPLEMENTAL OBSERVATIONS (NWS SHREVEPORT AREA)

CITY           SKY/WX    TMP DP  RH WIND       PRES   REMARKS
$$

SUPPLEMENTAL OBSERVATIONS ARE A COLLECTION OF AUTOMATED INSTRUMENTS
THAT ARE MAINTAINED BY A VARIETY OF FEDERAL AND STATE AGENCIES.
CERTAIN ELEMENTS...SUCH AS HUMIDITY VALUES AND SUSTAINED WIND
SPEEDS...MAY BE APPROXIMATED.





USA.gov is the U.S. government's official web portal to all federal, state and local government web resources and services.